Location: Ponte Samoggia
(44.5667°N, 11.1333°E)
Time: 22:51:54
(UTC+00:00)

Cosmos 2228 - Pass Details

Date: 26 May 2022
Orbit: 586 x 617 km, 82.5° (Epoch: 26 June)

Event Time Altitude Azimuth Distance (km) Brightness Sun altitude
Rises 01:56:49 0° 350° (N) 2,891 7.1 -14.4°
Reaches altitude 10° 01:59:04 10° 350° (N) 1,977 6.2 -14.1°
Maximum altitude 02:03:26 81° 263° (W) 621 2.9 -13.6°
Enters shadow 02:07:41 10° 176° (S) 1,917 5.2 -13.1°
